This is the latest recevied weather packets stored in our database for station/object N0QV. If no packets are shown the sender has not sent any weather packets the latest 10 day(s).
| Time | Temp. | Humidity | Pressure | Rain* | Wind** | Luminosity | Snow |
|---|---|---|---|---|---|---|---|
| 1777973017 | 2.78° C | 67% | 1009.2 hPa | 0 mm | - | 0 W/m² | - |
| 1777972713 | 2.22° C | 69% | 1009.3 hPa | 0 mm | - | 0 W/m² | - |
| 1777972411 | 2.22° C | 69% | 1008.9 hPa | 0 mm | - | 0 W/m² | - |
| 1777972109 | 1.67° C | 70% | 1008.9 hPa | 0 mm | - | 0 W/m² | - |
| 1777971807 | 2.22° C | 70% | 1008.8 hPa | 0 mm | - | 0 W/m² | - |
| 1777971504 | 2.22° C | 70% | 1009.1 hPa | 0 mm | - | 0 W/m² | - |
| 1777971202 | 2.22° C | 70% | 1008.6 hPa | 0 mm | - | 0 W/m² | - |
| 1777970899 | 2.22° C | 70% | 1008.8 hPa | 0 mm | - | 0 W/m² | - |
| 1777970598 | 2.22° C | 70% | 1008.6 hPa | 0 mm | - | 0 W/m² | - |
| 1777970294 | 2.22° C | 70% | 1008.6 hPa | 0 mm | - | 0 W/m² | - |
| 1777969992 | 2.22° C | 70% | 1008.6 hPa | 0 mm | - | 0 W/m² | - |
| 1777969688 | 2.22° C | 69% | 1008.4 hPa | 0 mm | - | 0 W/m² | - |
| 1777969385 | 2.22° C | 71% | 1008.4 hPa | 0 mm | - | 0 W/m² | - |
| 1777969081 | 2.22° C | 70% | 1008.3 hPa | 0 mm | - | 0 W/m² | - |
| 1777968778 | 2.78° C | 69% | 1008.3 hPa | 0 mm | - | 0 W/m² | - |
| 1777968475 | 2.78° C | 68% | 1008.2 hPa | 0 mm | - | 0 W/m² | - |
| 1777968170 | 3.33° C | 66% | 1008.3 hPa | 0 mm | - | 0 W/m² | - |
| 1777967866 | 3.33° C | 68% | 1008.2 hPa | 0 mm | - | 0 W/m² | - |
| 1777967564 | 3.33° C | 66% | 1008.2 hPa | 0 mm | - | 0 W/m² | - |
| 1777967261 | 3.89° C | 65% | 1008.3 hPa | 0 mm | - | 0 W/m² | - |
| 1777966958 | 3.89° C | 64% | 1008.1 hPa | 0 mm | - | 0 W/m² | - |
| 1777966655 | 3.33° C | 63% | 1008.3 hPa | 0 mm | - | 0 W/m² | - |
| 1777966353 | 3.89° C | 62% | 1008.2 hPa | 0 mm | - | 0 W/m² | - |
| 1777966050 | 3.89° C | 62% | 1008.2 hPa | 0 mm | - | 0 W/m² | - |
| 1777965746 | 3.89° C | 61% | 1008.1 hPa | 0 mm | - | 0 W/m² | - |
* Rain latest hour (hover to see other rain measurements)
** Current wind speed in m/s (hover to see current wind gust speed)